NOAA 16 DEB, 41305

Orbit data source: Space-Track

NOAA 16 DEB, 41305 is space debris in SSO originally from a launch on Thu, 21 Sep 2000 UTC launched from the Air Force Western Test Range (AFWTR). Debris objects in space refer to the collection of defunct objects orbiting the Earth. Examples of debris include non-operational satellites, rocket bodies, and fragments generated from explosions, collisions, or faulty payload assembly.

Loading next visibility...
Identifier
41305, 2000-055HH
Orbit
SSO
Country
Flag of USUS
Related business
Manufacturer
Unknown
Mission
Spacecraft
Bus & Motor
Unknown
Mass
Unknown
Launch date (UTC)
2000-09-21 (26 years ago)
Launch vehicle
Unknown
Launch site
Air Force Western Test Range (AFWTR)
Object type
Payload
Rocket body
Debris
Shape & HBR
Unknown shape, 0.1 m
Radar Cross Section
Small (<0.1 m²)

Expand to show TLE details & history
Last TLE update: 9 hours ago

TLE from 9 hours ago
0 NOAA 16 DEB
1 41305U 00055HH  26128.21294559  .00002530  00000-0  12456-2 0  9999
2 41305  98.7303 121.4317 0035486  18.9744 341.2745 14.18134971531850
Epoch: 2026-05-08T05:06Z
TLE epoch observation values (Epoch: 2026-05-08T05:06:38.498Z)
Latitude
-0.00002°
Longitude
178.72333°
Altitude
810.353 km
Speed
7.461 km/s
True Right ascension
08h 05m 43s
True Declination
0° 00' 00"
Sunlit
Object was in daylight at epoch
Visualization orbit readout
Latitude
Unknown
Longitude
Unknown
Altitude
Unknown
Speed
Unknown
Apparent Right ascension
Unknown
Apparent Declination
Unknown
Sunlit
N/A
Visualization observer readout
Local Sidereal Time
22:23:03
Azimuth
Unknown
Elevation
Unknown
Doppler factor
Unknown
Orbital elements
Apogee altitude
854.404 km
Perigee altitude
803.254 km
Semi-major axis
7,206.966 km
Eccentricity
0.00355
Inclination
98.7303°
RAAN
121.4317°
Arg. of periapsis
18.9744°
True anomaly
341.1434°
Mean anomaly
341.2745°
Eccentric anomaly
341.20901°
Mean motion
3.54744 °/min
Orbital period
101.48 mins
BSTAR
0.0012456
Loading maneuver chart data...
Computing Atmospheric mass density...
Loading historical data...
Loading historical data...
Loading historical data...
Loading historical data...
Loading historical data...
Loading historical data...
Loading historical data...

Documentation

Showing up to 5 results
|